Location: Newark
(49.8348°N, 24.0280°E)
Time: 22:42:21
(UTC+00:00)

Vanguard 1 - All Passes

Search period start: 22 January 2020 00:00
Search period end: 01 February 2020 00:00
Orbit: 651 x 3832 km, 34.2° (Epoch: 22 January)

Date Brightness Start Highest point End Pass type
(mag) Time Alt. Az. Time Alt. Az. Time Alt. Az.
22 Jan - 16:37:32 10° SSW 16:40:12 14° SSE 16:43:18 10° SE visible
22 Jan - 18:55:02 10° SW 18:59:22 20° S 19:05:22 10° SE visible
22 Jan - 21:15:28 10° SW 21:19:31 14° SSW 21:24:38 10° S night (unlit)
23 Jan - 16:57:46 10° SSW 17:00:45 16° SSE 17:04:21 10° SE visible
23 Jan - 19:16:00 10° SW 19:20:06 18° S 19:25:37 10° SSE visible
24 Jan - 17:18:14 10° SSW 17:21:21 16° S 17:25:10 10° SE visible
24 Jan - 19:37:15 10° SW 19:40:50 15° S 19:45:25 10° SSE visible
25 Jan - 17:38:54 10° SW 17:41:59 16° S 17:45:45 10° SE visible
25 Jan - 19:59:14 10° SW 20:01:37 12° SSW 20:04:23 10° S visible
26 Jan - 15:41:56 10° S 15:43:35 12° SSE 15:45:19 10° SE visible
26 Jan - 17:59:50 10° SW 18:02:39 14° S 18:06:02 10° SSE visible
27 Jan - 16:02:08 10° SSW 16:04:10 13° S 16:06:21 10° SE visible
27 Jan - 18:21:09 10° SSW 18:23:20 12° S 18:25:50 10° SSE visible
28 Jan - 16:22:42 10° SSW 16:24:46 13° S 16:27:01 10° SSE visible
29 Jan - 14:26:06 10° S 14:26:23 10° S 14:26:40 10° SSE daylight
29 Jan - 16:43:34 10° SSW 16:45:23 12° S 16:47:20 10° SSE visible
30 Jan - 14:45:26 10° SSW 14:46:59 11° S 14:48:30 10° SSE daylight
30 Jan - 17:05:07 10° SSW 17:06:01 10° S 17:06:55 10° S visible
31 Jan - 15:05:48 10° SSW 15:07:35 12° S 15:09:21 10° SSE daylight
